Regional Weather Roundup
Issued by NWS

Home | Current Version | Previous Version | Text Only | Print | Product List | Glossary Off
Versions: 1 2 3 4 5 6 7 8 9 10 11 12 13 14 15 16 17 18 19 20 21 22 23 24 25 26 27 28 29 30 31 32 33 34 35 36 37 38 39 40 41 42 43 44 45 46 47 48 49 50

000
ASUS45 KBOI 050110
RWRID
WEATHER ROUNDUP FOR IDAHO
NATIONAL WEATHER SERVICE BOISE ID
600 PM MST WED MAR 04 2015

NOTE: "FAIR" INDICATES FEW OR NO CLOUDS BELOW 12000 FEET
WITH NO SIGNIFICANT WEATHER AND/OR OBSTRUCTIONS TO VISIBILITY

IDZ012-014-050200-
SOUTHWEST IDAHO


CITY           SKY/WX    TMP DP  RH WIND       PRES   REMARKS
BOISE          CLEAR     43   9  24 NW8       30.27S
CALDWELL       CLEAR     45  12  26 N7        30.29S
MOUNTAIN HOME  CLEAR     44  10  25 NW10      30.25S
$$

IDZ016-017-050200-
SOUTHCENTRAL IDAHO


CITY           SKY/WX    TMP DP  RH WIND       PRES   REMARKS
JEROME         CLEAR     38   9  30 W10       30.24S WCI  31
TWIN FALLS     CLEAR     39   8  27 W8        30.24R WCI  33
$$

IDZ019>023-050200-
SOUTHEAST IDAHO


CITY           SKY/WX    TMP DP  RH WIND       PRES   REMARKS
IDAHO FALLS    CLEAR     32   8  36 SW12      30.22R WCI  23
POCATELLO      CLEAR     35  13  40 CALM      30.23S
REXBURG        CLEAR     30   5  34 S5        30.20S WCI  25
$$

IDZ006-010-011-018-031-032-050200-
CENTRAL IDAHO MOUNTAINS


CITY           SKY/WX    TMP DP  RH WIND       PRES   REMARKS
MCCALL         CLEAR     37   4  25 W7        30.18S WCI  32
HAILEY         CLEAR     34  14  44 SE17      30.18S WCI  23
STANLEY          N/A     30   4  33 CALM      30.15S
SALMON         CLEAR     37   5  25 SW3       30.16F
CHALLIS        CLEAR     37   1  22 CALM      30.13S
$$

IDZ002-004-006-007-026-050200-
NORTHERN IDAHO


CITY           SKY/WX    TMP DP  RH WIND       PRES   REMARKS
LEWISTON       CLEAR     47  12  24 NE7       30.26F
LOWELL           N/A     36  22  56 CALM      30.30F
COEUR D`ALENE  PTCLDY    43  18  36 SW10      30.22S
MULLAN PASS    MOCLDY    23   7  50 NW7       30.12R WCI  15
$$


USA.gov is the U.S. government's official web portal to all federal, state and local government web resources and services.